Regional Weather Roundup
Issued by NWS

Home | Current Version | Previous Version | Graphics & Text | Print | Product List | Glossary On
Versions: 1 2 3 4 5 6 7 8 9 10 11 12 13 14 15 16 17 18 19 20 21 22 23 24 25 26 27 28 29 30 31 32 33 34 35 36 37 38 39 40 41 42 43 44 45 46 47 48 49 50
000
ASUS43 KIND 212209
RWRIN

WEATHER ROUNDUP FOR INDIANA
NATIONAL WEATHER SERVICE INDIANAPOLIS IN
600 PM EDT MON JUL 21 2014

NOTE: "FAIR" INDICATES FEW OR NO CLOUDS BELOW 12,000 FEET WITH NO
SIGNIFICANT WEATHER AND/OR OBSTRUCTIONS TO VISIBILITY.

* - STATION DOES NOT REPORT WEATHER SUCH AS PRECIPITATION OR FOG.

+ - STATION NOT QUALITY CONTROLLED BY THE NATIONAL WEATHER SERVICE.
    USE DATA WITH CAUTION...ESPECIALLY DEWPOINT AND RELATIVE
    HUMIDITY OBSERVATIONS.

INZ001>003-010>013-019-020-212300-
NORTHWEST INDIANA

CITY           SKY/WX    TMP DP  RH WIND       PRES   REMARKS
GARY /AIRPORT/ MOSUNNY   84  63  48 S9        30.07F
KNOX *+        SUNNY     84  61  46 SE6       30.08S
LA PORTE +     PTSUNNY   83  63  51 S6        30.10S
MICHIGAN CITY+ MOSUNNY   81  61  50 S3        30.08S
MONTICELLO +   MOSUNNY   82  65  55 SW3       30.08S
RENSSELAER +   SUNNY     81  64  57 S5        30.09S
VALPARAISO     SUNNY     82  63  52 S6        30.09F

$$

LMZ046-743>745-212300-
SOUTHERN LAKE MICHIGAN

STATION/POSITION TIME  TEMP WIND        PRES
                       AIR  DIR/SP/G
                 (UTC) (F)  (DEG/KT/KT) (MB)
MICHIGAN CITY    2200   75   30/  9/ 11   N/A

$$

INZ004-005-014>016-021>024-212300-
NORTH CENTRAL INDIANA

CITY           SKY/WX    TMP DP  RH WIND       PRES   REMARKS
ELKHART        SUNNY     84  59  42 S3        30.10
GOSHEN         MOSUNNY   85  61  44 S6        30.09F
LOGANSPORT +   SUNNY     82  59  44 S3        30.10S
PERU/GRISSOM   PTSUNNY   84  65  53 CALM      30.09F
ROCHESTER +    SUNNY     86  59  39 E3        30.10S
SOUTH BEND     MOSUNNY   84  62  47 S7        30.10S
WARSAW +       PTSUNNY   84  63  48 CALM      30.09S

$$

INZ006>009-017-018-025>027-212300-
NORTHEAST INDIANA

CITY           SKY/WX    TMP DP  RH WIND       PRES   REMARKS
ANGOLA *+      SUNNY     84  63  48 CALM      30.10F
AUBURN +       SUNNY     86  54  32 CALM      30.10S
FORT WAYNE     MOSUNNY   84  59  42 CALM      30.10F
HUNTINGTON +   SUNNY     83  62  48 S5        30.09S

$$

INZ028-029-035-036-043>045-051>053-212300-
WEST CENTRAL INDIANA

CITY           SKY/WX    TMP DP  RH WIND       PRES   REMARKS
GREENCASTLE +  SUNNY     79  66  65 CALM      30.10R
LAFAYETTE      SUNNY     81  64  56 CALM      30.08S
TERRE HAUTE    MOSUNNY   83  65  54 VRB3      30.08S

$$

INZ030>032-037>040-046>048-054>057-064-065-212300-
CENTRAL INDIANA

CITY           SKY/WX    TMP DP  RH WIND       PRES   REMARKS
CP ATTERBURY + MOSUNNY   86  59  39 SE5       30.09R
COLUMBUS       MOSUNNY   86  63  45 E3        30.08S
INDIANAPOLIS   MOSUNNY   85  61  44 VRB7      30.08S
-EAGLE CREEK   MOSUNNY   85  59  41 SW3       30.08S
KOKOMO *+      SUNNY     82  63  51 SE5       30.09S
MARION +       SUNNY     83  60  46 CALM      30.11S
MT COMFORT *+  SUNNY     84  64  51 CALM      30.09S
SHELBYVILLE    SUNNY     85  65  51 E5        30.09R
ZIONSVILLE +   CLOUDY    83  61  45 E3        30.10R

$$

INZ033-034-041-042-049-050-058-059-212300-
EAST CENTRAL INDIANA

CITY           SKY/WX    TMP DP  RH WIND       PRES   REMARKS
MUNCIE         PTSUNNY   83  60  45 E5        30.10S

$$

INZ060-061-067>069-081>083-085>088-212300-
SOUTHWEST INDIANA

CITY           SKY/WX    TMP DP  RH WIND       PRES   REMARKS
EVANSVILLE     MOSUNNY   87  61  41 CALM      30.06S
HUNTINGBURG *+ MOSUNNY   88  64  45 N5        30.06F
WASHINGTON +   SUNNY     84  68  59 N3        30.06S

$$

INZ062-063-066-070>080-084-089>092-212300-
SOUTH CENTRAL AND SOUTHEAST INDIANA

CITY           SKY/WX    TMP DP  RH WIND       PRES   REMARKS
BEDFORD +      SUNNY     86  55  35 CALM      30.08
BLOOMINGTON    SUNNY     84  63  49 W3        30.08S
NORTH VERNON + PTSUNNY   84  66  54 NE3       30.09
SEYMOUR +      MOSUNNY   82  45  26 E3        30.07

$$




USA.gov is the U.S. government's official web portal to all federal, state and local government web resources and services.